Omaha Offutt, NE

11:08 PM CDT on March 25, 2017 (GMT -0500)
Offutt Air Force Base

Weather History for KOFF - April, 2013

Change the Weather History Date:

Wednesday, April 17, 2013

  Actual Average Record
Temperature  
Mean Temperature 42 °F -  
Max Temperature 46 °F 61 °F 87 °F (2004)
Min Temperature 38 °F 41 °F 28 °F (1997)
Degree Days  
Heating Degree Days 22    
Moisture  
Dew Point 41 °F    
Average Humidity 95    
Maximum Humidity 100    
Minimum Humidity 60    
Precipitation  
Precipitation 0.96 in - - ()
Sea Level Pressure  
Sea Level Pressure 29.91 in    
Wind  
Wind Speed 11 mph (NNE)    
Max Wind Speed 25 mph    
Max Gust Speed 38 mph    
Visibility 6 miles    
Events Rain , Thunderstorm    
Averages and records for this station are not official NWS values.
T = Trace of Precipitation, MM = Missing Value Source: NWS Daily Summary

Daily Weather History Graph

Daily Weather History Graph

Search for Another Location

Airport or City:

Trip Planner

Search our weather history database for the weather conditions in past years. The results will help you decide how hot, cold, wet, or windy it might be!

Date:

Astronomy

Apr. 17, 2013 Rise Set
Actual Time 6:40 AM CDT 8:06 PM CDT
Civil Twilight 6:12 AM CDT 8:34 PM CDT
Nautical Twilight 5:37 AM CDT 9:09 PM CDT
Astronomical Twilight 5:01 AM CDT 9:46 PM CDT
Moon 11:54 AM CDT (4/17) 1:45 AM CDT (4/17)
Length of Visible Light 14h 22m
Length of Day
13h 25m
Waxing Crescent, 42% of the Moon is Illuminated
Apr 17
Waxing Crescent
Apr 18
First Quarter
Apr 25
Full
May 2
Last Quarter
May 9
New

Hourly Weather History & Observations

Time (CDT) Temp. Windchill Dew Point Humidity Pressure Visibility Wind Dir Wind Speed Gust Speed Precip Events Conditions
12:55 AM 46.6 °F - 33.4 °F 60% 30.17 in 10.0 mi ENE 12.7 mph - N/A   Overcast
1:55 AM 45.9 °F 39.7 °F 33.4 °F 62% 30.13 in 10.0 mi ENE 13.8 mph - N/A   Overcast
2:55 AM 45.5 °F 39.6 °F 33.4 °F 63% 30.10 in 10.0 mi ENE 12.7 mph - N/A   Overcast
3:55 AM 45.1 °F 39.5 °F 33.8 °F 65% 30.09 in 10.0 mi ENE 11.5 mph 21.9 mph N/A   Overcast
4:09 AM 44.6 °F 39.2 °F 33.8 °F 66% 30.08 in 10.0 mi ENE 10.4 mph - N/A   Overcast
4:12 AM 44.6 °F 38.8 °F 35.6 °F 71% 30.08 in 10.0 mi ENE 11.5 mph - N/A   Light Drizzle
4:34 AM 44.6 °F 38.1 °F 35.6 °F 71% 30.06 in 10.0 mi ENE 13.8 mph 18.4 mph N/A   Overcast
4:39 AM 44.6 °F 38.8 °F 35.6 °F 71% 30.04 in 10.0 mi ENE 11.5 mph 18.4 mph N/A Rain Light Rain
4:55 AM 43.5 °F 36.7 °F 37.0 °F 78% 30.03 in 10.0 mi ENE 13.8 mph 20.7 mph 0.00 in   Overcast
5:03 AM 42.8 °F 37.0 °F 37.4 °F 81% 30.02 in 10.0 mi NE 10.4 mph 20.7 mph N/A Rain Light Rain
5:07 AM 42.8 °F 36.2 °F 37.4 °F 81% 30.01 in 10.0 mi NE 12.7 mph 19.6 mph N/A Rain , Thunderstorm Light Thunderstorms and Rain
5:16 AM 42.8 °F 37.5 °F 37.4 °F 81% 30.01 in 10.0 mi NE 9.2 mph - N/A Thunderstorm Thunderstorm
5:20 AM 42.8 °F 37.5 °F 37.4 °F 81% 30.02 in 10.0 mi NE 9.2 mph - N/A Rain , Thunderstorm Light Thunderstorms and Rain
5:22 AM 42.8 °F 37.5 °F 37.4 °F 81% 30.01 in 10.0 mi NNE 9.2 mph - N/A Rain , Thunderstorm Light Rain
5:55 AM 42.8 °F 38.6 °F 39.2 °F 87% 30.02 in 10.0 mi NNE 6.9 mph - 0.01 in Rain , Thunderstorm Light Rain
6:29 AM 42.8 °F 40.1 °F 41.0 °F 93% 30.11 in 3.0 mi West 4.6 mph - N/A Rain , Thunderstorm Heavy Thunderstorms and Rain
6:30 AM 42.8 °F 40.1 °F 41.0 °F 93% 30.10 in 2.5 mi Variable 4.6 mph - N/A Rain , Thunderstorm Heavy Thunderstorms and Rain
6:40 AM 42.8 °F 38.0 °F 41.0 °F 93% 30.06 in 3.0 mi NNW 8.1 mph - N/A Rain , Thunderstorm Heavy Thunderstorms and Rain
6:41 AM 42.8 °F 37.5 °F 41.0 °F 93% 30.06 in 3.0 mi North 9.2 mph - N/A Rain , Thunderstorm Heavy Thunderstorms and Rain
6:55 AM 41.7 °F 36.7 °F 41.4 °F 99% 30.05 in 4.0 mi NNE 8.1 mph - 0.25 in Rain , Thunderstorm Heavy Thunderstorms and Rain
7:18 AM 41.0 °F 31.6 °F 41.0 °F 100% 29.97 in 2.5 mi NE 20.7 mph - N/A Rain , Thunderstorm Heavy Thunderstorms and Rain
7:29 AM 41.0 °F 32.5 °F 41.0 °F 100% 29.96 in 3.0 mi NE 17.3 mph 27.6 mph N/A Rain , Thunderstorm Thunderstorms and Rain
7:47 AM 41.0 °F 32.8 °F 41.0 °F 100% 29.99 in 4.0 mi NE 16.1 mph - N/A Rain Rain
7:53 AM 41.0 °F 32.5 °F 41.0 °F 100% 29.96 in 2.5 mi NE 17.3 mph - N/A Rain Heavy Rain
7:54 AM 41.0 °F 32.8 °F 41.0 °F 100% 29.97 in 2.5 mi NE 16.1 mph - N/A Rain Heavy Rain
7:55 AM 41.7 °F 34.1 °F 41.5 °F 99% 29.97 in 2.5 mi NE 15.0 mph - 0.27 in Rain Heavy Rain
8:00 AM 41.0 °F 33.9 °F 41.0 °F 100% 29.97 in 2.5 mi NE 12.7 mph - N/A Rain Rain
8:01 AM 41.0 °F 32.8 °F 41.0 °F 100% 29.96 in 3.0 mi NE 16.1 mph 21.9 mph N/A Rain Heavy Rain
8:04 AM 41.0 °F 32.8 °F 41.0 °F 100% 29.95 in 4.0 mi NE 16.1 mph 21.9 mph N/A Rain , Thunderstorm Light Thunderstorms and Rain
8:15 AM 41.0 °F 30.9 °F 41.0 °F 100% 29.86 in 3.0 mi NE 24.2 mph 27.6 mph N/A Rain , Thunderstorm Thunderstorms and Rain
8:18 AM 41.0 °F 30.7 °F 41.0 °F 100% 29.83 in 3.0 mi NE 25.3 mph 33.4 mph N/A Rain , Thunderstorm Thunderstorms and Rain
8:30 AM 41.0 °F 34.3 °F 41.0 °F 100% 29.93 in 10.0 mi ESE 11.5 mph 38.0 mph N/A Rain Light Rain
8:34 AM 41.0 °F 33.9 °F 41.0 °F 100% 29.97 in 10.0 mi SSE 12.7 mph 35.7 mph N/A   Mostly Cloudy
8:35 AM 41.0 °F 34.7 °F 41.0 °F 100% 29.98 in 10.0 mi South 10.4 mph 24.2 mph N/A   Mostly Cloudy
8:53 AM 42.8 °F 39.3 °F 42.8 °F 100% 30.01 in 10.0 mi West 5.8 mph - N/A   Overcast
8:55 AM 42.3 °F 38.6 °F 42.1 °F 99% 30.01 in 10.0 mi WNW 5.8 mph - 0.07 in   Overcast
8:59 AM 42.8 °F 39.3 °F 42.8 °F 100% 30.02 in 10.0 mi West 5.8 mph - N/A   Overcast
9:55 AM 42.8 °F 38.6 °F 42.6 °F 99% 29.99 in 10.0 mi North 6.9 mph - N/A   Overcast
10:55 AM 42.3 °F 38.6 °F 42.1 °F 99% 29.96 in 10.0 mi North 5.8 mph - N/A   Overcast
11:17 AM 42.8 °F 38.6 °F 42.8 °F 100% 29.92 in 10.0 mi North 6.9 mph - N/A   Overcast
11:33 AM 42.8 °F 38.0 °F 42.8 °F 100% 29.91 in 8.0 mi North 8.1 mph - N/A   Overcast
11:55 AM 43.2 °F 40.5 °F 43.0 °F 99% 29.94 in 6.0 mi North 4.6 mph - N/A   Overcast
11:56 AM 42.8 °F 40.1 °F 42.8 °F 100% 29.94 in 6.0 mi NNE 4.6 mph - N/A   Overcast
12:11 PM 42.8 °F 38.0 °F 42.8 °F 100% 29.91 in 3.0 mi NNW 8.1 mph - N/A   Overcast
12:15 PM 42.8 °F 39.3 °F 42.8 °F 100% 29.91 in 2.5 mi Variable 5.8 mph - N/A   Overcast
12:16 PM 42.8 °F 39.3 °F 42.8 °F 100% 29.91 in 2.5 mi NNW 5.8 mph - N/A   Overcast
12:26 PM 42.8 °F 41.1 °F 42.8 °F 100% 29.95 in 3.0 mi Variable 3.5 mph - N/A   Overcast
12:32 PM 42.8 °F 40.1 °F 42.8 °F 100% 29.93 in 3.0 mi North 4.6 mph - N/A   Overcast
12:55 PM 43.0 °F 39.5 °F 42.8 °F 99% 29.89 in 4.0 mi North 5.8 mph - 0.00 in   Overcast
1:01 PM 42.8 °F 40.1 °F 42.8 °F 100% 29.91 in 4.0 mi Variable 4.6 mph - N/A   Overcast
1:12 PM 42.8 °F 34.8 °F 42.8 °F 100% 29.77 in 4.0 mi NNE 17.3 mph - N/A   Overcast
1:18 PM 42.8 °F 35.8 °F 42.8 °F 100% 29.94 in 3.0 mi WSW 13.8 mph 20.7 mph N/A   Overcast
1:19 PM 42.8 °F 36.2 °F 42.8 °F 100% 29.94 in 3.0 mi SW 12.7 mph 20.7 mph N/A   Overcast
1:31 PM 42.8 °F 38.0 °F 42.8 °F 100% 29.87 in 3.0 mi North 8.1 mph - N/A   Overcast
1:33 PM 42.8 °F 39.3 °F 42.8 °F 100% 29.87 in 3.0 mi North 5.8 mph - N/A   Overcast
1:45 PM 42.8 °F - 42.8 °F 100% 29.91 in 2.5 mi Calm Calm - N/A   Overcast
1:50 PM 42.8 °F 41.1 °F 42.8 °F 100% 29.90 in 3.0 mi NNW 3.5 mph - N/A   Overcast
1:55 PM 43.7 °F 39.7 °F 43.3 °F 99% 29.88 in 3.0 mi North 6.9 mph - 0.00 in   Overcast
2:15 PM 44.6 °F 42.2 °F 42.8 °F 93% 29.87 in 4.0 mi North 4.6 mph - N/A   Overcast
2:25 PM 44.6 °F 41.4 °F 42.8 °F 93% 29.88 in 2.5 mi North 5.8 mph - N/A   Overcast
2:34 PM 44.6 °F 40.7 °F 44.6 °F 100% 29.86 in 2.0 mi NNE 6.9 mph - N/A Rain Light Rain
2:53 PM 44.6 °F 40.2 °F 44.6 °F 100% 29.84 in 5.0 mi NNE 8.1 mph - N/A   Light Drizzle
2:55 PM 44.2 °F 38.8 °F 44.2 °F 100% 29.84 in 4.0 mi NNE 10.4 mph - 0.01 in   Light Drizzle
3:11 PM 44.6 °F 41.4 °F 44.6 °F 100% 29.87 in 6.0 mi NNE 5.8 mph - N/A   Overcast
3:32 PM 44.6 °F 38.8 °F 42.8 °F 93% 29.80 in 7.0 mi NE 11.5 mph - N/A   Overcast
3:39 PM 44.6 °F 38.8 °F 42.8 °F 93% 29.77 in 5.0 mi North 11.5 mph 24.2 mph N/A Rain Light Rain
3:41 PM 44.6 °F 39.2 °F 42.8 °F 93% 29.81 in 5.0 mi NW 10.4 mph 24.2 mph N/A Rain Light Rain
3:44 PM 44.6 °F 38.8 °F 42.8 °F 93% 29.81 in 4.0 mi NNW 11.5 mph 24.2 mph N/A Rain Light Rain
3:54 PM 42.8 °F 38.6 °F 42.8 °F 100% 29.84 in 6.0 mi NNE 6.9 mph 18.4 mph N/A   Overcast
3:55 PM 43.5 °F 39.4 °F 43.3 °F 99% 29.84 in 6.0 mi NE 6.9 mph 18.4 mph 0.00 in   Overcast
4:05 PM 42.8 °F 36.6 °F 42.8 °F 100% 29.78 in 5.0 mi NE 11.5 mph - N/A   Overcast
4:06 PM 42.8 °F 38.0 °F 42.8 °F 100% 29.79 in 5.0 mi NE 8.1 mph - N/A Rain Light Rain
4:07 PM 42.8 °F 38.6 °F 42.8 °F 100% 29.80 in 5.0 mi NE 6.9 mph - N/A Rain Light Rain
4:27 PM 42.8 °F 37.0 °F 42.8 °F 100% 29.80 in 3.0 mi NNE 10.4 mph - N/A Rain Light Rain
4:30 PM 42.8 °F 39.3 °F 42.8 °F 100% 29.82 in 3.0 mi North 5.8 mph - N/A Rain , Thunderstorm Light Thunderstorms and Rain
4:48 PM 42.8 °F 38.0 °F 42.8 °F 100% 29.81 in 3.0 mi NNE 8.1 mph - N/A Rain , Thunderstorm Thunderstorms and Rain
4:55 PM 42.3 °F 37.9 °F 42.1 °F 99% 29.81 in 3.0 mi North 6.9 mph - 0.06 in Rain , Thunderstorm Light Thunderstorms and Rain
4:57 PM 42.8 °F 39.3 °F 42.8 °F 100% 29.83 in 4.0 mi Variable 5.8 mph - N/A Rain , Thunderstorm Light Thunderstorms and Rain
4:59 PM 42.8 °F 37.5 °F 42.8 °F 100% 29.83 in 5.0 mi NW 9.2 mph - N/A Rain , Thunderstorm Light Thunderstorms and Rain
5:17 PM 42.8 °F 40.1 °F 42.8 °F 100% 29.87 in 3.0 mi NE 4.6 mph - N/A Rain , Thunderstorm Heavy Thunderstorms and Rain
5:21 PM 42.8 °F 40.1 °F 41.0 °F 93% 29.88 in 3.0 mi NNW 4.6 mph - N/A Rain , Thunderstorm Heavy Thunderstorms and Rain
5:23 PM 42.8 °F 40.1 °F 41.0 °F 93% 29.88 in 4.0 mi Variable 4.6 mph - N/A Rain , Thunderstorm Heavy Thunderstorms and Rain
5:38 PM 42.8 °F 41.1 °F 41.0 °F 93% 29.92 in 2.5 mi Variable 3.5 mph - N/A Rain , Thunderstorm Heavy Thunderstorms and Rain
5:43 PM 42.8 °F 40.1 °F 41.0 °F 93% 29.91 in 2.5 mi NW 4.6 mph - N/A Rain , Thunderstorm Heavy Thunderstorms and Rain
5:48 PM 42.8 °F 38.0 °F 41.0 °F 93% 29.88 in 3.0 mi North 8.1 mph - N/A Rain , Thunderstorm Heavy Thunderstorms and Rain
5:52 PM 41.0 °F 36.4 °F 41.0 °F 100% 29.86 in 3.0 mi NNE 6.9 mph - N/A Rain , Thunderstorm Heavy Thunderstorms and Rain
5:55 PM 41.7 °F 36.1 °F 41.5 °F 99% 29.84 in 3.0 mi North 9.2 mph - 0.22 in Rain , Thunderstorm Heavy Thunderstorms and Rain
6:04 PM 41.0 °F 34.3 °F 41.0 °F 100% 29.78 in 4.0 mi NNE 11.5 mph - N/A Rain , Thunderstorm Rain
6:21 PM 41.0 °F 32.5 °F 41.0 °F 100% 29.62 in 5.0 mi North 17.3 mph 34.5 mph N/A   Overcast
6:22 PM 41.0 °F 32.8 °F 41.0 °F 100% 29.63 in 5.0 mi North 16.1 mph 34.5 mph N/A   Overcast
6:24 PM 41.0 °F 33.1 °F 41.0 °F 100% 29.65 in 7.0 mi NNW 15.0 mph 34.5 mph N/A   Overcast
6:44 PM 41.0 °F 34.3 °F 41.0 °F 100% 29.74 in 10.0 mi North 11.5 mph 24.2 mph N/A   Overcast
6:50 PM 41.0 °F 37.1 °F 41.0 °F 100% 29.79 in 10.0 mi North 5.8 mph 19.6 mph N/A   Overcast
6:55 PM 41.7 °F 35.6 °F 41.5 °F 99% 29.75 in 10.0 mi North 10.4 mph - 0.07 in   Overcast
7:02 PM 41.0 °F 35.8 °F 41.0 °F 100% 29.79 in 10.0 mi NW 8.1 mph 20.7 mph N/A   Overcast
7:55 PM 41.5 °F 35.4 °F 41.4 °F 99% 29.83 in 10.0 mi NNW 10.4 mph - N/A   Overcast
8:55 PM 41.0 °F 35.2 °F 40.8 °F 99% 29.83 in 10.0 mi NNW 9.2 mph 23.0 mph N/A   Overcast
9:15 PM 41.0 °F 34.3 °F 41.0 °F 100% 29.83 in 10.0 mi NNW 11.5 mph 20.7 mph N/A   Overcast
9:55 PM 40.3 °F 32.2 °F 39.6 °F 97% 29.84 in 10.0 mi NNW 15.0 mph 21.9 mph N/A   Overcast
10:14 PM 41.0 °F 32.2 °F 39.2 °F 93% 29.83 in 10.0 mi North 18.4 mph 21.9 mph N/A   Overcast
10:41 PM 39.2 °F 30.5 °F 39.2 °F 100% 29.82 in 10.0 mi North 16.1 mph 25.3 mph N/A   Overcast
10:55 PM 39.6 °F 32.5 °F 39.4 °F 99% 29.83 in 10.0 mi North 11.5 mph 23.0 mph N/A   Overcast
11:19 PM 39.2 °F 30.2 °F 39.2 °F 100% 29.81 in 10.0 mi NNW 17.3 mph 23.0 mph N/A   Overcast
11:49 PM 39.2 °F 32.0 °F 37.4 °F 93% 29.81 in 10.0 mi NNW 11.5 mph 29.9 mph N/A   Overcast
11:55 PM 38.3 °F 29.0 °F 38.1 °F 99% 29.80 in 10.0 mi NNW 17.3 mph 24.2 mph 0.00 in   Overcast